www.pogodaiklimat.ru

Погода и климат >> Архив погоды >> Россия >> Адыгея >> Даховская


ПОГОДА в Даховской

  • Прогноз погоды в Даховской
  • Монитор погоды в Даховской

АРХИВ ПОГОДЫ в Даховской

Время (UTC), дата Ветер
(напр.,м/с)
 
Видим.   Явления Облачность Т
(С)
Тd
(С)
f
(%)
Тe
(С)
Тes
(С)
Комфортность P
(гПа)
Po
(гПа)
Тmin
(С)
Tmax
(С)
R
(мм)
R24
(мм)
S
(см)
06 9.01 штиль 0 10 км слаб. ливневой снег 10/10 600 м
[Cb cap]
-1.9 -1.9 100 -3 -3 1011.2 949.5 -1.9
09 9.01 СЗ 3 10 км слаб. ливневой снег 10/10 600 м
[Cb cap]
-1.5 -4.2 82 -6 -6 1014.7 952.9
12 9.01 СЗ 3 20 км {ливн. осадки} 10/10 1000 м
[Sc diur, vesp]
-0.3 -6.0 65 -5 -5 1017.6 955.8
15 9.01 штиль 0 50 км 1/1 1000 м
[Sc]
-4.5 -7.0 83 -5 -5 1020.5 957.6 +0.7 2
18 9.01 ЮВ 1 50 км ясно -8.4 -8.4 100 -11 -11 1023.6 959.6
21 9.01 ЮВ 1 50 км ясно -10.1 -10.4 98 -12 -12 1025.6 961.1
00 10.01 штиль 0 50 км ясно -9.8 -10.2 97 -10 -10 1026.8 962.3
03 10.01 ЮВ 1 50 км ясно -11.9 -12.4 96 -14 -14 1027.2 962.1 -12.0 4
06 10.01 С 1 50 км 1/0
[Ci fib]
-11.4 -12.1 95 -14 -13 1027.5 962.5 -12.6
09 10.01 ЮЗ 1 50 км 8/0
[Ci]
-1.5 -6.9 67 -3 +1 1023.1 960.7
12 10.01 штиль 0 50 км 10/0
[Ac lent Cs]
+3.0 -6.7 49 +3 +4 1020.3 959.1
15 10.01 штиль 0 50 км 6/6 1000 м
[Sc]
-1.7 -4.5 81 -3 -3 1020.5 958.3 +3.3
18 10.01 Ю 1 50 км 8/8 1000 м
[Sc]
-1.7 -3.9 85 -4 -4 1020.5 958.2
21 10.01 СВ 1 50 км 10/10 1000 м
[Sc]
-1.9 -4.2 84 -4 -4 1020.3 958.0
00 11.01 В 1 50 км 10/10 1000 м
[Sc]
+1.2 -4.1 68 -0 -0 1019.2 957.7
03 11.01 ЮВ 2 50 км 10/10 1000 м
[Sc]
+0.9 -4.5 67 -2 -2 1018.4 956.8 -3.2 4
06 11.01 ЮВ 2 50 км 10/3 1000 м
[Sc Ac cast Ci]
+1.1 -4.5 66 -2 -2 1018.9 957.4
09 11.01 ЮЗ 4
{11}
50 км 10/1 1000 м
[Sc Ac lent Cs]
+10.5 -5.7 32 +9 +10 1015.3 955.9
12 11.01 Ю 6-14
{14}
50 км 10/0
[Ac cast Cs]
+11.2 -5.5 31 +9 +9 1014.1 954.9
15 11.01 ЮЗ 4
{17}
50 км 10/1 1000 м
[Sc Ac lent Ci]
+10.8 -5.1 32 +9 +9 1014.4 955.2 +11.5
18 11.01 Ю 3
{14}
50 км 6/0
[Ac lent Ci]
+10.3 -5.1 33 +9 +9 1013.2 953.9
21 11.01 Ю 2
{11}
50 км 3/0
[Ci fib]
+8.7 -3.0 44 +8 +8 1012.6 953.0
00 12.01 Ю 5-12
{13}
50 км ясно +10.9 -4.9 33 +9 +9 1010.0 951.0
03 12.01 Ю 5-14
{15}
50 км ясно +6.9 -1.2 56 +3 +3 1011.0 951.2 +6.8
06 12.01 Ю 5-13
{15}
20 км 10/1 1000 м
[Sc Cs]
+7.0 +0.6 64 +3 +4 1011.6 951.8 +6.8
09 12.01 С 4
{13}
20 км 10/10 1000 м
[Sc]
+7.8 +1.7 65 +5 +5 1010.7 951.2
12 12.01 СЗ 2 20 км 10/10 1000 м
[Sc]
+7.0 +0.5 63 +5 +5 1010.7 950.9
15 12.01 С 1 20 км 10/10 1000 м
[Sc]
+4.8 +0.1 72 +4 +4 1010.9 950.6 +8.4
18 12.01 штиль 0 20 км 10/10 1000 м
[Sc]
+3.1 -0.0 80 +2 +2 1010.7 950.2
21 12.01 З 2 20 км 10/10 1000 м
[Sc]
+2.6 +0.1 84 -1 -1 1009.0 948.4
00 13.01 С 2 20 км 10/10 1000 м
[Sc]
+2.1 0.0 86 -1 -1 1008.2 947.6
03 13.01 штиль 0 10 км слаб. ливневой дождь 10/10 600 м
[Cb cap]
+1.3 +1.3 100 -0 -0 1007.9 947.2 +1.3 0.6
06 13.01 штиль 0 10 км слаб. ливневой снег 10/10 600 м
[Cb cap]
+0.1 +0.1 100 -1 -1 1008.8 947.7 +0.1
09 13.01 штиль 0 10 км слаб. ливневой снег 10/10 600 м
[Cb cap]
+0.6 +0.6 100 -1 -1 1009.1 948.1
12 13.01 С 1 10 км слаб. снег 10/0 300 м
[As op]
+0.3 +0.3 100 -2 -2 1009.1 948.0
15 13.01 СЗ 1 10 км слаб. снег ясно -0.1 -0.1 100 -2 -2 1009.6 948.4 +1.3 6
18 13.01 штиль 0 4000 м дымка {снег} 10/10 1000 м
[Sc]
-0.4 -0.4 100 -2 -2 1009.6 948.3
21 13.01 штиль 0 4000 м дымка 10/10 1000 м
[Sc]
-0.9 -0.9 100 -2 -2 1009.5 948.1
00 14.01 штиль 0 4000 м дымка 10/10 1000 м
[Sc]
-1.0 -1.0 100 -2 -2 1009.1 947.7
03 14.01 штиль 0 4000 м дымка 6/6 1000 м
[Sc]
-1.7 -1.7 100 -3 -3 1007.8 946.4 -2.2 0.3 1
06 14.01 штиль 0 20 км 9/9 1000 м
[Sc]
-2.0 -2.0 100 -3 -3 1007.6 946.1 -2.7
09 14.01 Ю 1 20 км 6/6 1000 м
[Sc]
+1.6 -0.6 85 -0 +2 1005.7 945.1
12 14.01 ЮЗ 1 20 км 1/0
[Ci fib]
+4.4 +1.0 79 +3 +5 1003.8 944.0
15 14.01 Ю 4 20 км 10/3 1000 м
[Sc Cs]
+6.2 -1.3 59 +3 +3 1003.4 943.9 +6.6
18 14.01 ЮВ 1 20 км 4/0
[Ci fib]
+1.0 +0.3 95 -1 -1 1004.6 943.9
21 14.01 ЮВ 2 20 км 1/1 1000 м
[Sc]
+1.9 -1.1 80 -1 -1 1004.0 943.6
00 15.01 ЮВ 2
{12}
50 км ясно +5.9 -1.3 60 +4 +4 1004.4 944.8
03 15.01 ЮВ 2
{13}
50 км ясно +0.3 -1.9 85 -3 -3 1005.9 945.0 -0.3
06 15.01 В 2 20 км 6/1 1000 м
[Sc Ci]
+0.7 -1.8 83 -3 -2 1006.6 945.8 -0.5
09 15.01 В 2 20 км 10/0
[Ac cast Ci]
+8.2 -0.5 54 +7 +9 1004.4 945.3
12 15.01 Ю 1 20 км 10/8 1000 м
[Sc Ci]
+10.6 -0.4 46 +11 +11 1002.4 943.9
15 15.01 В 1 20 км 10/10 1000 м
[Sc]
+4.7 +1.1 77 +4 +4 1002.5 942.8 +11.9
18 15.01 штиль 0 20 км 10/0
[Ac lent Cs]
+1.7 -0.6 85 +1 +1 1001.1 940.8
21 15.01 штиль 0 10 км слаб. ливневой дождь 10/10 1000 м
[Cb cap]
+1.7 +1.7 100 0 0 999.1 939.0
00 16.01 Ю 6-12
{12}
20 км {ливн. осадки} 10/10 1000 м
[Sc diur, vesp]
+9.1 +2.0 61 +6 +6 995.4 937.0

 

Местоположение метеостанции Даховская (Адыгея, Россия): широта 44.67 долгота 40.75 высота над уровнем моря 264 м.

В архиве по умолчанию представлена погода в Даховской за последнюю неделю. Архивные данные за месяц целиком и за предыдущие месяцы, начиная с января 2011 года, Вы можете получить, выбрав интересующий диапазон дат из раскрывающегося списка и нажав кнопку "Ввод!".


*Определитесь, кто Вы:
робот инопланетянин человек

Внимание! Время в таблицах - всемирное. Для получения местного времени необходимо прибавить поправку, которая равна 3 ч.

Смотрите также архив погоды в соседних городах и на ближайших метеорологических станциях:

Погода в Дондуковской (Адыгея, Россия) (38 км)
Погода в Армавире (Краснодарский край, Россия) (45 км)
Погода в Майкопе (Адыгея, Россия) (53 км)
Погода в Шунтуке (Адыгея, Россия) (55 км)
Погода в Псебае (Краснодарский край, Россия) (60 км)
Погода в Отрадной (Краснодарский край, Россия) (65 км)
Погода в Белореченске (Краснодарский край, Россия) (68 км)
Погода в Кропоткине (Краснодарский край, Россия) (86 км)
Погода в Гузерипле (Адыгея, Россия) (89 км)
Погода в Невинномысске (Ставропольский край, Россия) (97 км)

Пояснения к столбцам:

Ветер - указаны скорость ветра в м/с - средняя за 10 мин, порывы в срок и между сроками (в фигурных скобках) и направление, откуда дует ветер: С - северный, СВ - северо-восточный, В - восточный, ЮВ - юго-восточный, Ю - южный, ЮЗ - юго-западный, З - западный, СЗ - северо-западный.
Видимость - горизонтальная дальность видимости в метрах или километрах. При видимости от 1 до 10 км при отсутствии осадков обычно наблюдается дымка, при ухудшении видимости до 1 км и менее - туман. В сухую погоду видимость может ухудшаться дымом, пылью или мглою.
Явления - указаны атмосферные явления, наблюдавшиеся в срок или в последний час перед сроком; фигурными скобками обозначены явления, наблюдавшиеся между сроками (за 1-3 часа до срока); квадратными скобками обозначены град или гололедные отложения с указанием их диаметра в мм.
Облачность - указаны через наклонную черту общая и нижняя облачность в баллах и высота нижней границы облаков в метрах; квадратными скобками обозначены формы облаков: Ci - перистые, Cs - перисто-слоистые, Cc - перисто-кучевые, Ac - высококучевые, As - высокослоистые, Sc - слоисто-кучевые, Ns - слоисто-дождевые, Cu - кучевые, Cb - кучево-дождевые. Подробнее классификацию облаков см. в Атласе облаков (PDF).
T - Температура воздуха - температура, измеренная на высоте 2 м над землей.
Td - Температура точки росы - температура, при понижении до которой содержащийся в воздухе водяной пар достигнет насыщения.
f - Относительная влажность воздуха - влажноcть воздуха, измеренная на высоте 2 м над землей.
Te - Эффективная температура - температура, которую ощущает одетый по сезону человек в тени. Характеристика душности погоды. При расчете учитывается влияние влажности воздуха и скорости ветра на теплоощущения человека.
Tes - Эффективная температура на солнце - температура, которую ощущает человек, с поправкой на солнечный нагрев. Характеристика знойности погоды. Зависит от высоты солнца над горизонтом, облачности и скорости ветра. Ночью, в пасмурную погоду, а также при ветре 12 м/с и более поправка равна нулю.
P - Атмосферное давление - приведенное к уровню моря атмосферное давление.
Po - Атмосферное давление - измеренное на уровне метеостанции атмосферное давление.
Tmin - Минимальная температура - минимум температуры воздуха на высоте 2 м над землей.
Tmax - Максимальная температура - максимум температуры воздуха на высоте 2 м над землей.
R - Количество осадков - Количество выпавших осадков за период времени, мм. При наведении курсора мыши на число - период времени, за который выпало указанное количество осадков.
R24 - Количество осадков - Количество выпавших осадков за 24 часа, мм.
S - Снежный покров - Высота снежного покрова, см. При наведении курсора мыши на число - состояние снежного покрова и степень покрытия местности в баллах.